Wind_Speed
10 11 12 11 12 12 13 13 13 13 14 14 14 15 15 15 16 17 17 18 19 19 20 21 22 22 23 24 25 25 25 26 26 27 27 28 29 29
10 10 11 11 12 12 13 14 14 15 15 15 16 17 17 17 18 18 19 19 20 20 21 22 22 23 24 25 26 27 27 27 28 28 28 29 31 31
10 11 12 12 13 13 14 14 15 15 15 16 17 17 18 18 19 19 19 20 21 21 22 23 23 24 25 26 27 27 28 29 30 30 31 32 32 33
12 12 13 13 14 14 15 15 15 15 16 16 18 19 19 19 20 20 21 21 23 24 24 25 26 27 27 27 27 29 30 30 31 32 33 34 34 35
14 14 14 14 15 15 16 16 17 17 18 18 19 19 20 21 22 22 23 24 24 25 26 27 27 28 28 29 30 30 31 32 32 33 34 35 36 37
13 14 15 15 16 16 16 17 18 18 18 19 20 20 21 22 23 24 25 25 26 27 27 27 27 28 29 30 31 31 32 32 33 34 35 36 37 38
14 15 15 16 16 17 17 18 19 20 21 21 22 23 23 24 24 25 26 26 27 28 28 28 29 29 30 31 31 32 33 34 35 36 37 38 39 40
16 16 16 16 17 17 18 19 20 21 22 22 23 23 24 25 26 27 27 28 28 28 29 30 31 31 32 32 33 33 34 35 36 37 37 38 39 40
16 16 16 17 17 18 19 20 21 21 22 23 24 24 25 26 27 28 29 30 30 30 30 31 31 32 33 33 34 34 35 36 36 37 37 38 38 39
17 17 18 18 18 19 20 21 21 22 23 24 25 26 27 28 28 29 29 30 31 31 32 32 32 33 34 35 35 36 36 36 37 37 38 38 38 39
18 18 19 19 20 20 21 22 22 23 23 25 25 26 27 28 28 29 30 31 31 32 32 33 33 33 34 35 35 36 36 37 38 38 38 38 39 39
19 20 20 21 21 22 22 23 23 24 25 26 26 27 28 29 29 29 30 31 31 32 32 33 33 34 34 35 35 36 37 38 38 38 39 39 39 39
20 20 21 21 22 23 24 24 25 26 27 27 28 28 29 30 30 31 31 32 32 33 33 34 34 34 35 35 36 36 37 38 38 39 39 39 39 39
21 22 22 23 24 24 25 25 26 27 28 28 29 29 30 30 31 31 32 33 33 34 34 35 36 36 36 36 36 36 37 37 38 38 38 38 39 39
23 23 23 24 25 25 26 26 27 28 29 29 30 30 30 31 32 33 33 34 35 35 35 36 37 37 37 37 37 37 37 37 38 38 38 38 38 39
24 24 24 25 26 27 27 28 28 29 29 29 30 30 31 32 32 33 34 34 35 35 36 36 37 37 37 37 37 37 36 36 36 37 37 38 38 38
25 25 26 26 27 28 29 29 28 29 29 30 31 32 32 33 33 34 34 35 35 36 36 36 36 37 37 37 36 36 36 36 37 37 37 37 37 37
25 26 27 28 28 28 29 29 30 30 30 31 32 32 33 33 34 34 34 35 35 35 35 35 35 36 36 36 36 36 36 36 36 36 36 36 37 37
26 26 27 28 28 29 30 30 31 31 31 32 32 33 33 34 34 34 34 34 35 35 35 35 35 35 35 35 35 36 36 36 36 36 36 36 36 36
27 27 28 29 29 30 31 31 31 32 32 33 33 33 33 34 34 34 34 34 34 35 35 35 35 36 36 35 35 35 36 37 36 36 36 36 35 35
28 28 29 30 30 31 31 31 32 32 33 33 34 33 34 34 34 34 34 34 35 35 35 35 35 36 36 36 36 36 36 37 37 36 35 35 34 34
29 29 30 31 31 31 31 31 32 32 33 33 34 34 34 34 33 34 34 35 36 36 35 35 36 35 35 36 36 36 36 36 36 36 36 36 35 34
29 29 30 31 31 31 32 32 32 32 33 33 33 33 33 33 33 34 35 35 36 35 35 35 36 35 36 36 36 36 36 35 35 35 35 35 35 34
Wind_Direction
295 289 286 284 287 289 289 287 286 288 288 289 289 288 285 284 284 283 284 282 280 278 278 279 280 279 278 277 277 277 277 276 277 276 274 273 273 272
295 290 290 287 288 290 291 285 282 283 286 288 289 287 283 284 285 285 285 283 281 281 279 280 281 280 279 278 278 279 278 277 277 277 275 273 273 274
301 295 291 290 291 292 293 291 287 285 284 286 286 286 285 287 287 286 286 285 284 283 283 282 282 282 281 280 280 279 278 277 277 276 275 274 273 274
304 299 295 292 292 294 295 297 293 291 288 289 288 287 289 290 291 291 291 292 290 288 286 284 283 282 282 281 280 279 278 278 277 277 276 275 274 273
304 302 300 298 297 297 297 296 294 293 290 292 290 289 292 294 293 293 292 292 290 289 288 287 285 284 283 282 281 281 279 279 278 278 278 277 275 274
306 306 305 304 300 300 299 298 299 296 294 295 293 294 295 294 293 291 292 292 291 291 291 290 289 287 284 283 282 282 282 282 281 280 279 278 277 276
310 309 308 305 301 299 298 299 300 300 300 300 298 297 297 296 295 293 292 292 292 292 292 291 290 289 288 287 286 285 284 283 282 281 280 279 278 278
307 306 306 306 305 301 300 299 300 300 300 300 300 300 299 298 296 295 294 295 295 294 293 292 291 291 291 289 288 287 287 286 285 284 283 281 280 280
307 305 304 306 305 304 301 299 300 300 301 302 301 301 300 300 298 297 297 297 297 296 295 295 293 291 290 291 290 290 289 288 288 286 285 284 283 282
307 306 304 305 307 306 305 304 303 303 302 302 301 301 301 301 300 300 300 299 298 298 297 297 295 293 292 292 291 290 290 289 289 288 287 286 285 284
307 304 305 305 306 305 305 305 305 304 304 304 302 302 302 302 302 302 301 301 300 300 299 299 298 297 295 294 293 292 291 290 290 290 289 289 288 287
307 306 306 306 306 305 305 306 306 307 307 306 304 304 304 304 304 304 304 304 303 302 301 301 300 299 298 297 295 294 293 292 291 291 291 290 290 289
308 308 308 307 306 305 306 307 307 307 307 306 305 305 305 305 305 305 305 304 304 304 303 302 301 300 300 298 297 296 295 294 294 293 292 291 291 290
308 307 308 308 307 306 306 307 307 307 307 307 306 306 306 306 306 306 305 305 304 304 304 303 302 301 301 299 298 298 297 296 295 295 294 293 292 291
308 307 308 308 309 309 309 308 309 308 308 307 307 307 306 307 307 306 306 306 306 305 304 304 303 302 302 302 300 299 298 298 298 297 296 295 294 293
307 307 308 308 309 310 310 310 310 310 309 308 308 308 308 307 307 306 306 306 306 305 305 305 305 305 304 304 303 302 301 300 300 299 298 296 295 295
306 306 306 307 308 310 310 310 311 311 310 308 308 308 308 308 307 307 308 308 308 308 307 307 306 305 305 305 305 305 304 304 303 301 300 298 297 296
307 308 308 307 308 309 310 311 311 311 310 310 309 309 308 308 308 308 309 309 309 308 308 308 307 307 307 307 307 306 306 305 304 304 303 300 299 298
310 309 310 310 310 310 310 310 310 310 310 310 310 310 310 310 309 309 309 308 309 309 309 309 309 308 308 308 308 307 307 306 306 306 305 304 302 299
310 310 310 311 311 311 311 310 311 311 311 311 311 311 311 310 310 309 309 308 309 309 309 309 309 309 309 309 309 308 308 308 307 307 306 306 304 302
309 309 310 310 311 312 312 311 311 312 312 312 312 311 311 310 309 309 310 310 310 310 310 309 310 310 310 310 310 310 310 309 308 307 307 306 305 303
309 309 309 310 310 311 312 312 313 313 313 313 313 312 312 311 311 310 310 311 310 310 310 310 311 311 311 311 311 311 311 311 310 308 307 307 306 304
308 309 310 310 311 312 312 313 313 313 313 314 314 313 313 312 311 310 310 311 311 311 310 311 312 312 312 312 312 312 312 311 311 310 309 308 307 305
Height
5880 5879 5878 5877 5876 5875 5874 5873 5872 5870 5869 5867 5865 5864 5862 5860 5859 5858 5856 5855 5853 5852 5851 5849 5848 5846 5845 5843 5842 5840 5839 5837 5836 5834 5833 5832 5831 5829
5877 5876 5875 5874 5873 5871 5870 5868 5867 5866 5864 5863 5861 5859 5857 5855 5854 5853 5851 5850 5848 5846 5845 5843 5841 5839 5837 5836 5835 5833 5832 5830 5828 5827 5825 5824 5823 5821
5874 5873 5872 5871 5869 5868 5866 5864 5863 5862 5860 5859 5857 5855 5852 5851 5849 5848 5846 5844 5842 5840 5838 5837 5834 5832 5830 5829 5827 5825 5824 5822 5820 5819 5817 5815 5814 5813
5871 5870 5868 5867 5866 5864 5862 5860 5858 5857 5855 5854 5852 5850 5848 5846 5844 5842 5840 5838 5836 5834 5832 5830 5828 5825 5823 5821 5819 5817 5815 5813 5812 5810 5808 5806 5805 5803
5868 5866 5865 5863 5862 5860 5858 5856 5854 5852 5850 5849 5847 5845 5843 5841 5839 5837 5834 5832 5830 5827 5825 5822 5820 5817 5815 5813 5811 5809 5806 5804 5802 5800 5798 5796 5794 5792
5864 5863 5861 5859 5857 5855 5854 5852 5850 5848 5846 5844 5842 5840 5837 5835 5833 5830 5828 5825 5822 5820 5817 5814 5812 5809 5807 5804 5802 5800 5797 5795 5792 5790 5788 5786 5783 5781
5862 5859 5857 5855 5853 5851 5849 5847 5845 5843 5841 5838 5836 5834 5831 5828 5826 5823 5820 5818 5815 5812 5809 5806 5803 5800 5797 5795 5792 5790 5787 5784 5782 5779 5777 5774 5772 5769
5858 5856 5854 5852 5849 5847 5844 5842 5840 5838 5835 5833 5830 5827 5824 5822 5819 5816 5813 5810 5807 5804 5801 5797 5794 5791 5788 5785 5782 5779 5776 5774 5771 5768 5765 5763 5760 5757
5854 5852 5850 5847 5845 5842 5840 5837 5835 5832 5830 5827 5824 5821 5818 5815 5812 5809 5805 5802 5799 5795 5792 5789 5785 5781 5778 5775 5772 5769 5766 5763 5760 5757 5754 5751 5748 5745
5850 5848 5845 5843 5840 5837 5835 5832 5829 5827 5824 5821 5818 5815 5812 5808 5805 5801 5797 5794 5790 5786 5783 5779 5775 5772 5768 5765 5761 5758 5755 5752 5748 5745 5742 5739 5736 5733
5845 5843 5840 5838 5835 5833 5830 5827 5824 5821 5817 5814 5811 5807 5804 5800 5797 5793 5789 5785 5781 5777 5773 5770 5766 5762 5759 5755 5751 5747 5744 5740 5737 5734 5730 5727 5724 5720
5841 5838 5835 5833 5830 5827 5824 5821 5818 5814 5811 5807 5804 5800 5797 5793 5789 5785 5781 5777 5773 5769 5765 5761 5757 5752 5749 5745 5741 5737 5733 5729 5726 5722 5718 5715 5711 5708
5836 5833 5830 5827 5824 5821 5818 5815 5811 5808 5804 5801 5797 5793 5789 5785 5781 5777 5773 5769 5765 5760 5756 5752 5747 5743 5739 5735 5731 5726 5722 5718 5714 5710 5707 5703 5699 5696
5831 5828 5825 5822 5818 5815 5811 5808 5804 5801 5797 5794 5790 5786 5782 5777 5773 5769 5765 5760 5756 5751 5746 5742 5738 5733 5729 5724 5720 5716 5712 5707 5703 5699 5695 5691 5688 5684
5825 5822 5819 5815 5812 5808 5805 5801 5797 5794 5790 5786 5782 5778 5774 5770 5765 5761 5756 5751 5747 5742 5737 5732 5728 5723 5718 5714 5709 5705 5701 5697 5692 5688 5684 5680 5676 5672
5819 5816 5813 5809 5806 5802 5798 5794 5790 5786 5783 5779 5774 5770 5766 5761 5757 5752 5748 5743 5738 5733 5728 5723 5718 5713 5708 5703 5699 5694 5690 5686 5681 5677 5672 5668 5664 5661
5813 5810 5806 5803 5799 5795 5791 5787 5783 5779 5775 5771 5766 5762 5757 5753 5748 5743 5739 5734 5729 5724 5719 5714 5708 5703 5698 5693 5688 5684 5679 5675 5670 5666 5661 5657 5653 5649
5807 5803 5799 5796 5792 5788 5784 5780 5776 5772 5767 5763 5758 5754 5749 5744 5740 5735 5730 5725 5720 5715 5710 5705 5699 5694 5689 5683 5679 5674 5669 5665 5660 5655 5651 5646 5642 5638
5800 5796 5793 5789 5785 5781 5777 5773 5769 5764 5759 5755 5750 5746 5741 5736 5731 5726 5721 5717 5711 5706 5701 5695 5690 5685 5680 5675 5669 5664 5660 5655 5650 5645 5641 5636 5632 5628
5793 5790 5786 5782 5778 5774 5770 5765 5761 5756 5751 5747 5742 5737 5732 5727 5723 5718 5713 5708 5703 5697 5692 5687 5681 5676 5671 5666 5661 5655 5650 5645 5640 5635 5631 5626 5621 5617
5786 5783 5779 5775 5771 5766 5762 5757 5753 5748 5743 5738 5734 5729 5724 5719 5714 5709 5704 5699 5694 5688 5683 5678 5672 5667 5661 5656 5651 5646 5640 5634 5629 5625 5620 5616 5612 5608
5779 5775 5771 5767 5763 5759 5754 5749 5745 5740 5735 5730 5725 5720 5715 5710 5705 5700 5695 5690 5685 5680 5674 5669 5663 5658 5652 5647 5641 5636 5631 5625 5619 5614 5609 5605 5601 5597
5772 5768 5764 5760 5755 5751 5746 5742 5737 5732 5727 5722 5717 5712 5707 5702 5697 5692 5687 5682 5676 5671 5665 5660 5654 5649 5643 5638 5632 5627 5622 5616 5611 5606 5601 5596 5591 5587